Location: Moscow
(55.7500°N, 37.5830°E)
Time: 07:46:46
(UTC+03:00)

A-11 Canister half - Pass Details

Date: 09 December 2021
Orbit: 1524 x 1684 km, 47.3° (Epoch: 17 January)

Event Time Altitude Azimuth Distance (km) Brightness Sun altitude
Exits shadow 06:38:09 18° 263° (W) 3,347 10.2 -16.5°
Maximum altitude 06:44:02 31° 216° (SW) 2,595 10.0 -15.7°
Drops below altitude 10° 06:52:09 10° 160° (SSE) 3,829 11.6 -14.6°
Sets 06:55:40 0° 150° (SSE) 4,788 12.4 -14.2°
